Ellensburg, WA
on Friday, February 15, 2013

Friday
Previous Day Next Day
Daily Summary
 ActualAverage (KYKM)Record (KYKM)
Temperature
Mean Temperature °F 36°F  
Max Temperature 55°F 46°F 61°F (1972)
Min Temperature 28°F 26°F 1°F (1956)
Degree Days
Heating Degree Days 24 29  
Month to date heating degree days 452  
Since 1 July heating degree days 4170  
Cooling Degree Days 0 0  
Month to date cooling degree days 0  
Year to date cooling degree days 0  
Moisture
Dew Point 29°F   
Average Humidity 70    
Maximum Humidity 85    
Minimum Humidity 45    
Precipitation
Precipitation 0.00 in 0.03 in 0.30 in (1982)
Month to date precipitation 0.43  
Year to date precipitation 1.57  
Snow
Snow 0.00 in 0.10 in 0.90 in (1980)
Month to date snowfall 1.6  
Year to date snowfall 6.9  
Since 1 July snowfall 19.9  
Snow Depth in   
Wind
Wind Speed 2 mph   
Max Wind Speed 8 mph   
Max Gust Speed mph   
Visibility 10 miles   
Events     

Key: T is trace of precipitation, MM is missing value
Source: NWS Daily Summary
Time(PST)TemperatureDew PointHumidity Pressure Visibility Wind DirectionWind SpeedGust SpeedPrecipitationEvents Conditions
12:53 AM 33.1°F 27.0°F 78% 30.53 in 10.0 miles Calm Calm - N/A   Clear
1:53 AM 30.9°F 26.1°F 82% 30.53 in 10.0 miles Calm Calm - N/A   Clear
2:53 AM 30.9°F 26.1°F 82% 30.53 in 10.0 miles Calm Calm - N/A   Clear
3:53 AM 30.9°F 26.1°F 82% 30.52 in 10.0 miles SE 3.5 mph - N/A   Clear
4:53 AM 30.0°F 26.1°F 85% 30.51 in 10.0 miles Calm Calm - N/A   Clear
5:53 AM 28.0°F 23.0°F 81% 30.52 in 10.0 miles East 4.6 mph - N/A   Clear
6:53 AM 28.0°F 23.0°F 81% 30.52 in 10.0 miles Calm Calm - N/A   Clear
7:45 AM 28.4°F 23.0°F 80% 30.48 in 10.0 miles Calm Calm - N/A   Partly Cloudy
7:53 AM 30.0°F 25.0°F 82% 30.53 in 10.0 miles Calm Calm - N/A   Partly Cloudy
8:53 AM 37.0°F 30.9°F 79% 30.53 in 10.0 miles Calm Calm - N/A   Clear
9:53 AM 41.0°F 33.1°F 73% 30.53 in 10.0 miles Calm Calm - N/A   Clear
10:53 AM 45.0°F 33.1°F 63% 30.51 in 10.0 miles Variable 3.5 mph - N/A   Clear
11:53 AM 48.9°F 32.0°F 52% 30.49 in 10.0 miles SE 3.5 mph - N/A   Clear
12:53 PM 52.0°F 33.1°F 49% 30.45 in 9.0 miles Calm Calm - N/A   Clear
1:53 PM 53.1°F 33.1°F 47% 30.40 in 10.0 miles Calm Calm - N/A   Clear
2:53 PM 55.0°F 34.0°F 45% 30.38 in 10.0 miles SE 3.5 mph - N/A   Clear
3:53 PM 55.0°F 34.0°F 45% 30.36 in 10.0 miles Calm Calm - N/A   Clear
4:53 PM 52.0°F 33.1°F 49% 30.34 in 10.0 miles SE 3.5 mph - N/A   Clear
5:53 PM 44.1°F 30.9°F 60% 30.34 in 10.0 miles East 6.9 mph - N/A   Clear
6:53 PM 41.0°F 30.9°F 67% 30.33 in 10.0 miles East 8.1 mph - N/A   Clear
7:53 PM 37.9°F 28.9°F 70% 30.32 in 10.0 miles SE 4.6 mph - N/A   Clear
8:53 PM 37.9°F 30.9°F 76% 30.31 in 10.0 miles East 8.1 mph - N/A   Clear
9:53 PM 33.1°F 27.0°F 78% 30.30 in 10.0 miles NE 3.5 mph - N/A   Clear
10:53 PM 35.1°F 28.0°F 76% 30.29 in 10.0 miles Calm Calm - N/A   Clear
11:53 PM 30.9°F 25.0°F 79% 30.26 in 10.0 miles ENE 3.5 mph - N/A   Clear
Moon Phase
Feb. 15 Feb. 17 Feb. 25 Mar. 04 Mar. 11
Sunrise:07:06 AM (PST) Moon Rise:09:19 AM (PST)2/15
Sunset:05:27 PM (PST) Moon Set:No Moon Set/

Copyright © 2014 The Weather Underground, Inc.